Location: Baumgarten
(49.0970°N, 12.7493°E)
Time: 08:38:53
(UTC+00:00)

Cosmos 2058 - Pass Details

Date: 05 July 2020
Orbit: 561 x 584 km, 82.5° (Epoch: 04 August)

Event Time Altitude Azimuth Distance (km) Brightness Sun altitude
Exits shadow 21:25:00 24° 162° (SSE) 1,205 3.9 -14.2°
Maximum altitude 21:27:15 53° 95° (E) 710 3.1 -14.4°
Drops below altitude 10° 21:31:18 10° 18° (NNE) 1,887 6.2 -14.7°
Sets 21:33:31 0° 14° (NNE) 2,786 7.3 -14.8°
